Location: Akdamlar
(36.8729°N, 30.5187°E)
Time: 19:22:53
(UTC+00:00)

SL-08 RB Rocket - Pass Details

Date: 18 September 2020
Orbit: 646 x 684 km, 97.8° (Epoch: 26 October)

Event Time Altitude Azimuth Distance (km) Brightness Sun altitude
Exits shadow 17:54:34 26° 186° (S) 1,323 5.1 -23.1°
Maximum altitude 17:57:04 62° 259° (W) 758 4.1 -23.6°
Drops below altitude 10° 18:01:37 10° 341° (NNW) 2,098 6.8 -24.4°
Sets 18:03:52 0° 344° (NNW) 3,009 7.6 -24.9°
